Date String (YYYY-MM-DD hh:mm:ss) UTC,Instrument flags,Ambient pressure (hPa),Sample flow (lpm),Bypass flow (lpm),Sample temperature (°C),Ambient temperature (°C),ASC tube jacket temperature (°C),LED temperature (°C),Box temperature (°C),Sample RH (%),Span deviation,Mass concentration (μg/m³),Mass concentration (μg/m³),Mass concentration (μg/m³)
DateTimeUTC,F1_M11,P_M11,Q1_M11,Q2_M11,T1_M11,T2_M11,T3_M11,T4_M11,T5_M11,U1_M11,ZSPAN_M11,X0_M11,X2_M11,X1_M11
2022-10-16 11:00:00,,0833.6,4.99,0.00,30.0,28.5,00.0,38.9,31.8,17.3,0001.7,0011.74,0008.34,0007.88
2022-10-16 11:01:00,,0833.6,5.00,0.00,30.0,28.5,00.0,38.9,31.8,17.4,0000.0,0011.25,0008.33,0007.88
2022-10-16 11:02:00,,0833.5,5.00,0.00,30.0,28.5,00.0,38.9,31.8,17.3,0000.0,0011.26,0008.32,0007.88
2022-10-16 11:03:00,,0833.6,5.01,0.00,30.0,28.5,00.0,38.9,31.7,17.4,0000.0,0011.21,0008.30,0007.88
2022-10-16 11:04:00,,0833.6,4.99,0.00,30.0,28.5,00.0,38.9,31.7,17.4,0000.0,0011.18,0008.28,0007.86
2022-10-16 11:05:00,,0833.6,5.00,0.00,30.0,28.5,00.0,38.9,31.7,17.4,0000.0,0011.19,0008.25,0007.86
2022-10-16 11:06:00,,0833.6,5.02,0.00,30.0,28.5,00.0,38.9,31.8,17.4,0000.0,0011.55,0008.24,0007.85
2022-10-16 11:07:00,,0833.7,4.99,0.00,30.0,28.5,00.0,38.9,31.8,17.4,0000.0,0011.68,0008.25,0007.84
2022-10-16 11:08:00,,0833.6,4.99,0.00,30.0,28.4,00.0,38.9,31.8,17.4,0000.0,0011.71,0008.24,0007.83
2022-10-16 11:09:00,,0833.6,5.02,0.00,30.0,28.4,00.0,38.9,31.7,17.4,0000.0,0011.89,0008.25,0007.84
2022-10-16 11:10:00,,0833.6,4.99,0.00,30.0,28.4,00.0,38.9,31.7,17.4,0000.0,0012.47,0008.30,0007.86
2022-10-16 11:11:00,,0833.7,4.99,0.00,30.0,28.4,00.0,38.9,31.7,17.4,0000.0,0012.44,0008.30,0007.87
2022-10-16 11:12:00,,0833.7,5.01,0.00,30.0,28.4,00.0,38.9,31.7,17.4,0000.0,0012.65,0008.31,0007.88
2022-10-16 11:13:00,,0833.7,4.99,0.00,30.0,28.4,00.0,38.8,31.8,17.4,0000.0,0012.68,0008.33,0007.88
2022-10-16 11:14:00,,0833.7,4.99,0.00,30.0,28.4,00.0,38.8,31.8,17.4,0000.0,0012.72,0008.31,0007.87
2022-10-16 11:15:00,,0833.7,5.01,0.00,30.0,28.4,00.0,38.8,31.8,17.4,0000.0,0012.72,0008.32,0007.86
2022-10-16 11:16:00,,0833.7,5.00,0.00,30.0,28.4,00.0,38.8,31.7,17.4,0000.0,0012.69,0008.33,0007.85
2022-10-16 11:17:00,,0833.7,4.99,0.00,30.0,28.4,00.0,38.8,31.7,17.4,0000.0,0012.32,0008.33,0007.85
2022-10-16 11:18:00,,0833.7,5.00,0.00,30.0,28.4,00.0,38.8,31.8,17.4,0000.0,0012.22,0008.33,0007.84
2022-10-16 11:19:00,,0833.7,5.01,0.00,30.0,28.4,00.0,38.8,31.7,17.4,0000.0,0012.25,0008.34,0007.83
2022-10-16 11:20:00,,0833.8,5.00,0.00,30.0,28.4,00.0,38.8,31.7,17.4,0000.0,0012.14,0008.35,0007.83
2022-10-16 11:21:00,,0833.8,4.99,0.00,30.0,28.4,00.0,38.8,31.7,17.4,0000.0,0011.47,0008.32,0007.82
2022-10-16 11:22:00,,0833.8,5.02,0.00,29.9,28.4,00.0,38.8,31.7,17.4,0000.0,0011.52,0008.32,0007.80
2022-10-16 11:23:00,,0833.8,5.00,0.00,30.0,28.4,00.0,38.8,31.8,17.4,0000.0,0011.35,0008.31,0007.79
2022-10-16 11:24:00,,0833.8,5.00,0.00,29.9,28.4,00.0,38.8,31.7,17.4,0000.0,0011.29,0008.32,0007.80
2022-10-16 11:25:00,,0833.8,5.00,0.00,29.9,28.3,00.0,38.8,31.7,17.4,0000.0,0011.26,0008.35,0007.81
2022-10-16 11:26:00,,0833.8,5.00,0.00,29.9,28.3,00.0,38.8,31.7,17.4,0000.8,0011.37,0008.39,0007.82
2022-10-16 11:27:00,,0833.8,5.00,0.00,29.9,28.3,00.0,38.8,31.7,17.4,0001.8,0011.67,0008.35,0007.82
2022-10-16 11:28:00,,0833.8,5.00,0.00,29.9,28.3,00.0,38.8,31.7,17.4,0000.0,0011.83,0008.36,0007.81
2022-10-16 11:29:00,,0833.8,5.00,0.00,29.9,28.3,00.0,38.8,31.7,17.4,0001.4,0012.23,0008.37,0007.82
2022-10-16 11:30:00,,0833.8,5.00,0.00,29.9,28.3,00.0,38.8,31.7,17.4,0003.2,0012.28,0008.35,0007.82
2022-10-16 11:31:00,,0833.8,5.00,0.00,29.9,28.3,00.0,38.8,31.7,17.4,0002.8,0012.12,0008.33,0007.82
2022-10-16 11:32:00,,0833.8,5.00,0.00,29.9,28.3,00.0,38.8,31.7,17.4,0001.8,0012.01,0008.31,0007.82
2022-10-16 11:33:00,,0833.8,5.00,0.00,29.9,28.3,00.0,38.8,31.7,17.4,0000.0,0012.05,0008.35,0007.83
2022-10-16 11:34:00,,0833.8,5.00,0.00,29.9,28.2,00.0,38.7,31.7,17.5,0000.0,0012.01,0008.34,0007.82
2022-10-16 11:35:00,,0833.8,5.00,0.00,29.9,28.2,00.0,38.7,31.7,17.5,0000.0,0012.21,0008.34,0007.81
2022-10-16 11:36:00,,0833.8,5.02,0.00,29.9,28.2,00.0,38.7,31.6,17.5,0000.0,0012.31,0008.36,0007.80
2022-10-16 11:37:00,,0833.8,4.99,0.00,29.8,28.2,00.0,38.7,31.6,17.5,0000.0,0012.37,0008.37,0007.79
2022-10-16 11:38:00,,0833.8,4.99,0.00,29.8,28.1,00.0,38.7,31.6,17.5,0000.0,0012.11,0008.44,0007.82
2022-10-16 11:39:00,,0833.8,5.02,0.00,29.8,28.1,00.0,38.7,31.6,17.5,0000.0,0012.89,0008.47,0007.83
2022-10-16 11:40:00,,0833.8,4.99,0.00,29.8,28.1,00.0,38.7,31.5,17.5,0000.0,0012.61,0008.49,0007.84
2022-10-16 11:41:00,,0833.8,5.00,0.00,29.8,28.1,00.0,38.7,31.5,17.5,0000.0,0012.52,0008.51,0007.85
2022-10-16 11:42:00,,0833.8,5.01,0.00,29.8,28.1,00.0,38.7,31.5,17.5,0000.0,0012.56,0008.51,0007.84
2022-10-16 11:43:00,,0833.9,5.00,0.00,29.8,28.1,00.0,38.7,31.5,17.6,0000.0,0012.73,0008.53,0007.84
2022-10-16 11:44:00,,0833.9,4.99,0.00,29.8,28.1,00.0,38.6,31.5,17.6,0000.0,0012.72,0008.50,0007.82
2022-10-16 11:45:00,,0833.9,4.99,0.00,29.7,28.1,00.0,38.6,31.5,17.6,0001.2,0012.76,0008.49,0007.82
2022-10-16 11:46:00,,0833.9,5.00,0.00,29.7,28.1,00.0,38.6,31.5,17.6,0001.7,0012.64,0008.53,0007.86
2022-10-16 11:47:00,,0833.9,5.01,0.00,29.7,28.1,00.0,38.6,31.5,17.6,0001.7,0012.62,0008.52,0007.88
2022-10-16 11:48:00,,0833.9,5.00,0.00,29.7,28.1,00.0,38.6,31.5,17.6,0001.6,0012.74,0008.51,0007.90
2022-10-16 11:49:00,,0833.9,5.00,0.00,29.7,28.1,00.0,38.6,31.5,17.6,0001.9,0012.98,0008.52,0007.90
2022-10-16 11:50:00,,0833.9,5.00,0.00,29.7,28.1,00.0,38.6,31.5,17.6,0001.4,0012.28,0008.51,0007.91
2022-10-16 11:51:00,,0833.9,5.00,0.00,29.7,28.2,00.0,38.6,31.5,17.6,0001.0,0011.98,0008.48,0007.92
2022-10-16 11:52:00,,0833.9,5.01,0.00,29.7,28.2,00.0,38.6,31.5,17.6,0000.8,0011.94,0008.47,0007.93
2022-10-16 11:53:00,,0833.9,4.98,0.00,29.7,28.1,00.0,38.6,31.5,17.5,0000.6,0011.95,0008.50,0007.95
2022-10-16 11:54:00,,0833.9,5.00,0.00,29.7,28.1,00.0,38.6,31.5,17.5,0000.9,0011.93,0008.51,0007.96
2022-10-16 11:55:00,,0833.9,5.00,0.00,29.7,28.1,00.0,38.6,31.5,17.5,0001.7,0011.91,0008.52,0007.99
2022-10-16 11:56:00,,0833.9,5.01,0.00,29.7,28.1,00.0,38.6,31.5,17.5,0001.8,0011.95,0008.54,0008.02
2022-10-16 11:57:00,,0833.8,4.99,0.00,29.7,28.1,00.0,38.6,31.5,17.5,0001.2,0012.43,0008.53,0008.01
2022-10-16 11:58:00,,0833.8,5.02,0.00,29.7,28.1,00.0,38.6,31.5,17.5,0001.4,0012.50,0008.53,0008.01
2022-10-16 11:59:00,,0833.9,5.00,0.00,29.7,28.1,00.0,38.6,31.5,17.6,0001.2,0012.62,0008.53,0008.00
